2016: Manx Grand Prix Practice Results: 22nd August

Senior

The top 10 riders and their fastest times were as follows:

  1. Richard Charlton – 19:43.459 – 114.772mph
  2. Andrew Dudgeon – 19:43.641 – 114.754mph
  3. Davey Lambert – 19:51.421 – 114.005mph
  4. Jamie Hodson – 20:06.995 – 112.534mph
  5. Richard Wilson – 20:07.376 – 112.499mph
  6. Peter Wilkinson – 20:12.780 – 111.997mph
  7. Mike Moulai – 20:12.938 – 111.983mph
  8. Glenn Harrison – 20:13.315 – 111.948mph
  9. Barry Lee Evans – 20:16.420 – 111.662mph
  10. Tom Robinson – 20:22.582 – 111.099mph

Junior

The top 10 riders and their fastest times were as follows:

  1. Richard Charlton – 19:43.459 – 114.772mph
  2. Andrew Dudgeon – 19:43.641 – 114.754mph
  3. Tom Weeden – 19:47.715 – 114.361mph
  4. Davey Lambert – 19:51.421 – 114.005mph
  5. Jamie Hodson – 20:06.995 – 112.534mph
  6. Richard Wilson – 20:07.376 – 112.499mph
  7. Peter Wilkinson – 20:!2.780 – 111.997mph
  8. Glenn Harrison – 20:13.315 – 111.948mph
  9. Barry Lee Evans – 20:16.420 – 111.662mph

(Senior & Junior results from same session)

Supertwin

The top 10 riders and their fastest times were as follows:

  1. Andrew Dudgeon – 20:49.167 – 108.735mph
  2. Dean Osborne – 21:06.636 – 107.235mph
  3. David Lumsden – 21:14.429 – 106.579mph
  4. Richard Charlton – 21:24.598 – 105.738mph
  5. Royce Rowe – 21:38.952 – 104.648mph
  6. Jamie Hodson – 21:39.390 – 104.532mph
  7. Mike Minns – 21:40.737 – 104.424mph
  8. Charles Rhys Hardistry – 21:42.753 – 104.262mph
  9. Rob Temple – 21:42.856 – 104.254mph
  10. Tom Robinson – 21:54.887 – 103.300mph

Lightweight

The top 10 riders and their fastest times were as follows:

  1. Dan Sayle – 21:18.841 – 106.212mph
  2. Nick Anderson – 22:19.770 – 101.382mph
  3. Mike Carter – 22:20.054 – 101.360mph
  4. Gavin Brown – 22:24.960 – 100.990mph
  5. Dave Taylor – 22:37.218 – 100.078mph
  6. James Caswell – 23:02.922 – 98.218mph
  7. Nigel Moore – 23:16.278 – 97.279mph
  8. Elwyn Fryer – 23:40.982 – 95.587mph
  9. Lancelot Unissart – 23:44.944 – 95.322mph
  10. Alex Sinclair – 23:55.635 – 94.612mph

Newcomers A

The top 10 riders and their fastest times were as follows:

  1. Michael Evans – 21:03.634 – 107.490mph
  2. Brendan Fargher – 21:12.588 – 106.734mph
  3. Jamie Williams – 21:24.409 – 105.751mph
  4. Mark Foster – 21:33.890 – 104.976mph
  5. Wayne Humble – 21:36.071 – 104.800mph
  6. Raul Torras Martinez – 21:42.004 – 104.322mph
  7. Sean Montgomery – 22:00.940 – 102.827mph
  8. Callum Ward – 22:08.510 – 102.241mph
  9. Paul Williams – 22:17.392 – 101.562mph
  10. Julian Trummer – 22:26.239 – 100.894mph

Newcomers B

The top 10 riders and their fastest times were as follows:

  1. Jonathan Perry – 22:29.834 – 100.626mph
  2. Paul van der Heiden – 22:48.831 – 99.229mph
  3. Marc Ironside – 23:18.059 – 97.155mph
  4. Scott Miller – 24.09.893 – 93.681mph
  5. Daniel Ingham – 24:21.834 – 92.916mph
  6. Stuart Hall – 24:30.814 – 92.349mph
  7. Wayne Martin – 25:00.137 – 90.544mph
  8. Michael Brookes – 25:15.372 – 89.633mph
  9. Bradley Robinson – 25:41.54 – 88.134mph
  10. Colin Bowles – 25:52.251 – 87.504mph

Full Monday Newcomers B qualifying results 

 

 

 

Advertisements

Leave a Reply

Fill in your details below or click an icon to log in:

WordPress.com Logo

You are commenting using your WordPress.com account. Log Out / Change )

Twitter picture

You are commenting using your Twitter account. Log Out / Change )

Facebook photo

You are commenting using your Facebook account. Log Out / Change )

Google+ photo

You are commenting using your Google+ account. Log Out / Change )

Connecting to %s